Flag for Canada Weather past 2 weeks in Miramichi, New Brunswick, Canada

Now
75 °F

Broken clouds.


Feels Like: 78 °F
Forecast: 57 / 81 °F
Wind: 9 mph from North

Location: Bathurst Airport

Current Time: Aug 1, 2014 at 1:28:00 PM

Latest Report: Aug 1, 2014 at 1:00 PM


Visibility: 15 mi

Pressure: 30.18 "Hg

Humidity: 57%

Dew point: 59 °F

Location of MiramichiLocation

Historic Weather in Miramichi — Graph

°F

Miramichi temperature yesterday

Maximum temperature yesterday: 77 °F (at 7:00 PM)
Minimum temperature yesterday: 59 °F (at 3:00 AM)
Average temperature yesterday: 67 °F

Past Weeks' High & Low Weather Summary

 TemperatureHumidityPressure
High90 °F (Jul 23, 2:00 PM)100% (Jul 22, 6:00 AM)30.25 "Hg (Jul 22, 6:00 AM)
Low48 °F (Jul 25, 5:00 AM)32% (Jul 25, 2:00 PM)29.51 "Hg (Jul 29, 6:00 AM)
Average68 °F74%29.90 "Hg
* Reported Jul 17 12:00 Noon — Aug 1 12:00 Noon, Miramichi, Weather by CustomWeather, © 2014

Note: Actual official high and low records may vary slightly from our data, if they occured in-between our weather recording intervals... More about our weather records

Advertising

Miramichi weather history for previous 24 hours

 ConditionsComfort  
Time TempWeatherWind HumidityBarometerVisibility
12:00 PM
Aug 1
75 °FScattered clouds.7 mph47%30.19 "Hg15 mi
11:00 AM73 °FPassing clouds.7 mph53%30.18 "Hg15 mi
10:00 AM70 °FPassing clouds.8 mph60%30.19 "Hg15 mi
9:00 AM64 °FPassing clouds.5 mph78%30.19 "Hg12 mi
8:00 AM59 °FPassing clouds.2 mph88%30.17 "Hg10 mi
7:00 AM57 °FSunny.2 mph94%30.15 "Hg7 mi
6:00 AM55 °FFog.No wind94%30.14 "Hg6 mi
5:00 AM57 °FClear.3 mph94%30.13 "Hg15 mi
4:00 AM59 °FClear.5 mph94%30.12 "Hg15 mi
3:00 AM61 °FClear.6 mph88%30.12 "Hg15 mi
2:00 AM61 °FPassing clouds.3 mph94%30.12 "Hg15 mi
1:00 AM63 °FPassing clouds.2 mph83%30.11 "Hg15 mi
12:00 AM64 °FClear.3 mph83%30.10 "Hg15 mi
11:00 PM
Jul 31
68 °FPassing clouds.6 mph78%30.10 "Hg15 mi
10:00 PM68 °FPassing clouds.2 mph73%30.08 "Hg15 mi
9:00 PM68 °FBroken clouds.3 mph73%30.06 "Hg15 mi
8:00 PM73 °FPartly sunny.3 mph61%30.05 "Hg15 mi
7:00 PM77 °FPassing clouds.6 mph51%30.04 "Hg15 mi
6:00 PM75 °FScattered clouds.No wind69%30.03 "Hg15 mi
5:00 PM73 °FScattered clouds.5 mph74%30.03 "Hg15 mi
4:00 PM73 °FScattered clouds.8 mph78%30.02 "Hg15 mi
3:00 PM75 °FScattered clouds.5 mph74%30.02 "Hg15 mi
2:00 PM73 °FPartly sunny.3 mph74%30.03 "Hg15 mi
1:00 PM68 °FPartly sunny.5 mph88%30.03 "Hg12 mi
Weather by CustomWeather, © 2014

See weather overviewHow to use our weather pages